Regional Weather Roundup
Issued by NWS Cleveland, OH

Home | Current Version | Previous Version | Text Only | Print | Product List | Glossary Off
Versions: 1 2 3 4 5 6 7 8 9 10 11 12 13 14 15 16 17 18 19 20 21 22 23 24 25 26 27 28 29 30 31 32 33 34 35 36 37 38 39 40 41 42 43 44 45 46 47 48 49 50

000
ASUS41 KCLE 181712
RWRCLE
OHIO REGIONAL WEATHER ROUNDUP
NATIONAL WEATHER SERVICE WILMINGTON, OH
100 PM EDT FRI AUG 18 2017

NOTE: "FAIR" INDICATES FEW OR NO CLOUDS BELOW 12,000 FEET WITH NO
SIGNIFICANT WEATHER AND/OR OBSTRUCTIONS TO VISIBILITY.

OHZ001>008-015>018-024>027-034-035-043-044-181800-
   NORTHWEST OHIO

CITY           SKY/WX    TMP DP  RH WIND       PRES   REMARKS
DEFIANCE       CLOUDY    75  62  64 W8        29.85R
FINDLAY        PTSUNNY   81  63  54 W16G24    29.85R
TOLEDO EXPRESS CLOUDY    76  63  64 W16       29.83R
TOLEDO EXEC    CLOUDY    77  65  66 W18G24    29.83R
LIMA           PTSUNNY   78  64  61 W18G26    29.88R
$$

OHZ009>014-019>023-028>033-038-089-181800-
   NORTHEAST OHIO

CITY           SKY/WX    TMP DP  RH WIND       PRES   REMARKS
CLE-HOPKINS    FAIR      85  63  47 SW18G29   29.83R
CLE-LAKEFRONT  CLOUDY    78  66  66 W15       29.80R
CUY CO. ARPT   NOT AVBL
LORAIN-ELYRIA  PTSUNNY   78  60  53 W9G22     29.83R
ASHTABULA      FAIR      80  65  59 W12       29.81F
AKRON-CANTON   PTSUNNY   85  60  42 W20G25    29.84S
WOOSTER        FAIR      80  63  55 W10       29.85S
MANSFIELD      PTSUNNY   79  63  57 SW13      29.87R
YOUNGSTOWN     PTSUNNY   83  64  52 W16G23    29.82F
$$

OHZ042-051>053-060>062-070>072-077>081-181800-
  SOUTHWEST OHIO

CITY           SKY/WX    TMP DP  RH WIND       PRES   REMARKS
CINC-COVINGTON PTSUNNY   82  66  58 W12G20    29.93S
CINC-LUNKEN    FAIR      82  65  56 W10       29.91S
HAMILTON       FAIR      83  64  52 W10       29.91F
DAYTON         FAIR      81  63  54 W17G25    29.91S
WRIGHT-PAT AFB PTSUNNY   81  65  59 SW12      29.89S
DAYTON GENERAL FAIR      80  61  52 W13       29.91R
WILMINGTON     FAIR      81  67  62 W14       29.91S
$$

OHZ036-037-039>041-045>050-054>059-063>069-073>076-082>088-181800-
  CENTRAL AND SOUTHEAST OHIO

CITY           SKY/WX    TMP DP  RH WIND       PRES   REMARKS
COLUMBUS       FAIR      82  64  54 W16       29.87S
OSU AIRPORT    FAIR      82  67  60 W13G22    29.87F
BOLTON FIELD   PTSUNNY   81  66  61 W13G20    29.89S
RICKENBACK AFB PTSUNNY   81  65  59 W12G18    29.88S
NEWARK         PTSUNNY   81  62  52 W15       29.86F
MARION         PTSUNNY   80  62  54 W14       29.87R
LANCASTER      FAIR      82  67  60 W10G20    29.88F
ZANESVILLE     FAIR      84  67  56 W15G21    29.87S
NEW PHILLY     FAIR      82  67  60 W10G18    29.86S
$$




USA.gov is the U.S. government's official web portal to all federal, state and local government web resources and services.